Meteo Giornale » Osservazioni meteo Gran Bretagna » Londra City AP

ore: 15:20 - Osservazioni Meteo Londra City AP
Lat. 51° 30' N Lon. 0° 30' W Alt. 5 metri s.l.m.

sereno Europe/London

22 °C

Sereno

Temp. 24 Ore

9 °C

22 °C

Est

20.3 Km/h

Dew point 6 °C

Umidità 35 %

Visibilità  10 Km

Il sole sorge alle ore 05:55

Il sole tramonta alle ore 20:06

Data e Ora Cielo e Fenomeni T °C DP °C Um. % Pres. hPa Vis. km Vento km/h
Oggi h: 15:20 sereno Sereno 22 6 35 1028 10 E 20.3
Oggi h: 14:50 sereno Sereno 22 6 35 1028 10 E 20.3
Oggi h: 14:20 sereno Sereno 22 6 35 1028 10 E 22.2
Oggi h: 13:50 sereno Sereno 22 6 35 1028 10 E 24
Oggi h: 13:20 sereno Sereno 22 7 37 1028 10 E 22.2
Oggi h: 12:50 sereno Sereno 21 7 40 1028 10 E 20.3
Oggi h: 12:20 sereno Sereno 20 7 42 1028 10 E 22.2
Oggi h: 11:50 sereno Sereno 19 8 48 1028 10 E 14.8
Oggi h: 11:20 sereno Sereno 19 8 48 1028 10 E 14.8
Oggi h: 10:50 sereno Sereno 17 8 55 1028 10 E 14.8
Oggi h: 10:20 sereno Sereno 17 8 55 1028 10 E 13
Oggi h: 09:50 sereno Sereno 15 8 62 1028 10 N 5.5
Oggi h: 09:20 sereno Sereno 14 7 62 1028 10 E/NE 7.4
Oggi h: 08:50 sereno Sereno 13 6 62 1028 10 N 3.7
Oggi h: 07:50 sereno Sereno 11 6 71 1028 10 N 5.5
Oggi h: 07:20 sereno Sereno 10 6 76 1028 8 N 7.4
Oggi h: 06:50 sereno Sereno 10 6 76 1027 8 N 5.5
Oggi h: 06:20 sereno Sereno 9 6 81 1027 8 N 5.5
Oggi h: 05:50 sereno Sereno 9 6 81 1027 8 N 3.7
Oggi h: 05:20 sereno Sereno 9 6 81 1026 10 N 3.7
Oggi h: 04:50 sereno Sereno 10 6 76 1026 10 N 3.7
Oggi h: 04:20 sereno Sereno 10 6 76 1026 10 N 5.5
Oggi h: 03:50 sereno Sereno 10 6 76 1026 10 N 3.7
Oggi h: 03:20 sereno Sereno 10 6 76 1026 10 N 5.5
Oggi h: 02:50 sereno Sereno 10 6 76 1026 10 N 3.7
Oggi h: 02:20 sereno Sereno 11 6 71 1026 10 N 3.7
Oggi h: 01:50 sereno Sereno 12 6 66 1026 10 N 3.7
Oggi h: 01:20 sereno Sereno 12 6 66 1026 10 N 5.5
Oggi h: 00:50 sereno Sereno 13 6 62 1026 10 N 5.5
Oggi h: 00:20 sereno Sereno 13 6 62 1026 10 N 3.7
Ieri h: 23:50 sereno Sereno 13 6 62 1026 10 N 5.5
Ieri h: 23:20 sereno Sereno 13 6 62 1026 10 N 3.7
Ieri h: 22:50 sereno Sereno 13 6 62 1026 10 N 1.8
Ieri h: 22:20 sereno Sereno 14 6 58 1026 10 E/NE 7.4
Ieri h: 21:50 sereno Sereno 14 7 62 1025 10 E/NE 11.1
Ieri h: 21:20 sereno Sereno 15 6 54 1025 10 E/NE 11.1
Ieri h: 20:50 sereno Sereno 16 6 51 1025 10 E/NE 13
Ieri h: 20:20 sereno Sereno 15 7 58 1025 10 E 11.1
Ieri h: 19:50 sereno Sereno 16 7 55 1024 10 E 9.3
Ieri h: 19:20 sereno Sereno 17 7 51 1024 10 E 13
Ieri h: 18:50 sereno Sereno 17 7 51 1024 10 E 20.3
Ieri h: 18:20 sereno Sereno 18 6 45 1023 10 E 20.3
Ieri h: 17:50 sereno Sereno 18 6 45 1023 10 E 24
Ieri h: 17:20 sereno Sereno 19 6 42 1023 10 E 24
Ieri h: 16:50 sereno Sereno 18 5 42 1023 10 E 25.9
Ieri h: 16:20 sereno Sereno 19 6 42 1023 10 E 25.9
Ieri h: 15:50 sereno Sereno 19 5 39 1023 10 E 25.9